User: anonymous   Login
Location: Wildlife_Club
(35.6000°N, 81.4330°W)
Time: 09:36:06
(UTC-05:00)
Language:

Cosmos 1782 - Orbit

View from above orbital plane
View from above orbital plane
View from above satellite
View from above satellite

Ground track
Ground track

The orbit data is extracted from the following two-line orbital elements,

1 16986U 86074A   16344.47878818  .00000296  00000-0  18111-4 0  9997
2 16986  82.5065 305.7407 0009135 267.4771  92.5411 15.06378189642299
Epoch (UTC): 09 December 2016 11:29:27
Eccentricity: 0.0009135
inclination: 82.5065°
perigee height: 541 km
apogee height: 553 km
right ascension of ascending node: 305.7407°
argument of perigee: 267.4771°
revolutions per day: 15.06378189
mean anomaly at epoch: 92.5411°
orbit number at epoch: 64229

The dashed part of the orbit path shows where the satellite is in the earth's shadow,  

DLR